Location: Unspecified
(22.6800°N, 112.2000°E)
Time: 15:48:27
(UTC+08:00)

S-56A Canister/Altair - Pass Details

Date: 29 July 2021
Orbit: 632 x 2500 km, 38.9° (Epoch: 24 September)

Event Time Altitude Azimuth Distance (km) Brightness Sun altitude
Rises 16:48:15 0° 265° (W) 5,669 13.0 31.7°
Reaches altitude 10° 16:51:57 10° 270° (W) 4,843 13.1 30.8°
Maximum altitude 17:05:44 49° 342° (NNW) 3,016 11.2 27.7°
Drops below altitude 10° 17:19:46 10° 54° (NE) 4,902 11.3 24.5°
Sets 17:23:34 0° 60° (ENE) 5,739 11.6 23.7°
